{"data":{"norad_id":68966,"intl_designator":"2026-099R","name":"STARLINK-36402","alt_names":[],"object_type":"PAYLOAD","status":"ACTIVE","operator":null,"country":"US","launch_date":"2026-05-01","launch_site_code":"AFETR","launch_vehicle":null,"mission":null,"orbit_class":"UNKNOWN","rcs_meters":null,"size_class":null,"mass_kg":null,"dimensions":null,"purposes":["comms"],"wikipedia_slug":null,"has_3d_model":false,"image_url":null,"decayed_at":null,"tle_current":{"epoch":"2026-05-25T04:00:03.998880Z","epoch_age_seconds":64671,"freshness":"FRESH","line1":"1 68966U 26099R   26145.16671295 -.01882265  00000+0 -24980-1 0  9993","line2":"2 68966  53.1594 270.1565 0001102  87.8849 163.0619 15.60862443  5019","mean_motion":15.60862443,"eccentricity":0.0001102,"inclination_deg":53.1594,"raan_deg":270.1565,"arg_perigee_deg":87.8849,"mean_anomaly_deg":163.0619,"bstar":-0.02498,"rev_number":501,"period_min":92.256688374941,"perigee_km":384.41927570133,"apogee_km":385.90990737211,"semimajor_km":6763.3015915367,"source":"CELESTRAK","updated_at":"2026-05-25T13:38:22.075120Z"}}}